Skip Page Navigation
NASA JPL Caltech
NASA Logo - Jet Propulsion Laboratory + View the NASA Portal
+ Near-Earth Object (NEO) Program
Search JPL
JPL Home Earth Solar System Stars & Galaxies Technology
JPL Solar System Dynamics
BODIES ORBITS EPHEMERIDES TOOLS PHYSICAL DATA DISCOVERY FAQ SITE MAP
JPL Small-Body Database Browser
Search: [ help ]  
114024 Scotkleinman (2002 UB62)
Classification: Main-belt Asteroid          SPK-ID: 2114024
Ephemeris | Orbit Diagram | Orbital Elements | Physical Parameters | Discovery Circumstances | Close-Approach Data ]

[ show orbit diagram ]
Orbital Elements at Epoch 2457000.5 (2014-Dec-09.0) TDB
Reference: JPL 10 (heliocentric ecliptic J2000)
 Element Value Uncertainty (1-sigma)   Units 
e .086854950596759 1.2545e-07  
a 2.77343369210756 4.5603e-08 AU
q 2.532547245796171 3.7166e-07 AU
i 8.318078799036725 7.6054e-06 deg
node 222.8002518018168 5.7034e-05 deg
peri 335.4575353744054 7.4005e-05 deg
M 19.13893852006845 4.8287e-05 deg
tp 2456910.810737241747
(2014-Sep-10.31073724)
0.00022639 JED
period 1687.038942055992
4.62
4.161e-05
1.139e-07
d
yr
n .2133916360942258 5.2632e-09 deg/d
Q 3.014320138418949 4.9564e-08 AU
  Orbit Determination Parameters
   # obs. used (total)      234  
   data-arc span      5670 days (15.52 yr)  
   first obs. used      1998-10-15  
   last obs. used      2014-04-24  
   planetary ephem.      DE431  
   SB-pert. ephem.      SB431-BIG16  
   condition code      0  
   fit RMS      .54469  
   data source      ORB  
   producer      Otto Matic  
   solution date      2014-Jun-10 23:22:43  

Additional Information
 Earth MOID = 1.53339 AU 
 T_jup = 3.315 
[ show covariance matrix ]

Ephemeris | Orbit Diagram | Orbital Elements | Physical Parameters | Discovery Circumstances | Close-Approach Data ]

Physical Parameter Table
Parameter Symbol Value Units Sigma Reference Notes
absolute magnitude H 15.7 mag n/a MPO280540  

114024 Scotkleinman           Discovered 2002 Oct. 30 by the Sloan Digital Sky Survey at the Apache Point Observatory.
Scot J. Kleinman (b. 1965) is an American astronomer and a significant contributor to the Sloan Digital Sky Survey.
NOTE: some special characters may not display properly (any characters within {} are an attempt to place the proper accent above a character)
Reference: 20110517/MPCPages.arcLast Updated: 2011-06-24

[ show close-approach data ]
Ephemeris | Orbit Diagram | Orbital Elements | Physical Parameters | Discovery Circumstances | Close-Approach Data ]
ABOUT SSD CREDITS/AWARDS PRIVACY/COPYRIGHT GLOSSARY LINKS
FirstGov 2014-Aug-28 03:19 UT
(server date/time)  
NASA Home Page
Site Manager:   Donald K. Yeomans
Webmaster  Alan B. Chamberlin